Location: Little Baddow
(51.7333°N, 0.5667°E)
Time: 15:18:05
(UTC+00:00)

COSMOS 2428 - Pass Details

Date: 14 February 2026
Orbit: 843 x 856 km, 70.9° (Epoch: 6 March)

Event Time Altitude Azimuth Distance (km) Brightness Sun altitude
Rises 18:11:59 0° 325° (NW) 3,438 6.3 -10.1°
Reaches altitude 10° 18:14:35 10° 317° (NW) 2,498 5.7 -10.5°
Maximum altitude 18:19:49 37° 252° (WSW) 1,298 4.4 -11.3°
Drops below altitude 10° 18:25:00 10° 187° (S) 2,482 5.3 -12.1°
Sets 18:27:36 0° 179° (S) 3,413 5.9 -12.5°
